This is the latest recevied weather packets stored in our database for station/object WD9EKA. If no packets are shown the sender has not sent any weather packets the latest 10 day(s).
| Time | Temp. | Humidity | Pressure | Rain* | Wind** | Luminosity | Snow |
|---|---|---|---|---|---|---|---|
| 1777670093 | 12.78° C | 63% | 1011.9 hPa | 0 mm | - | - | - |
| 1777669773 | 13.33° C | 59% | 1011.7 hPa | 0 mm | - | - | - |
| 1777669453 | 13.33° C | 58% | 1012.1 hPa | 0 mm | - | - | - |
| 1777669133 | 13.89° C | 56% | 1012 hPa | 0 mm | - | - | - |
| 1777668813 | 12.78° C | 59% | 1012.1 hPa | 0 mm | - | - | - |
| 1777668493 | 12.22° C | 58% | 1012.2 hPa | 0 mm | - | - | - |
| 1777668173 | 12.22° C | 56% | 1012.3 hPa | 0 mm | - | - | - |
| 1777667533 | 13.89° C | 56% | 1012 hPa | 0 mm | - | - | - |
| 1777667213 | 13.89° C | 57% | 1012.3 hPa | 0 mm | - | - | - |
| 1777666893 | 12.78° C | 57% | 1012.4 hPa | 0 mm | - | - | - |
| 1777666573 | 12.78° C | 57% | 1012.3 hPa | 0 mm | - | - | - |
| 1777666253 | 12.78° C | 57% | 1012.5 hPa | 0 mm | - | - | - |
| 1777665933 | 12.78° C | 58% | 1012.4 hPa | 0 mm | - | - | - |
| 1777665613 | 12.78° C | 57% | 1012.4 hPa | 0 mm | - | - | - |
| 1777664973 | 12.22° C | 63% | 1012.6 hPa | 0 mm | - | - | - |
| 1777664333 | 12.22° C | 62% | 1012.6 hPa | 0 mm | - | - | - |
| 1777663693 | 12.78° C | 60% | 1012.7 hPa | 0 mm | - | - | - |
| 1777663373 | 12.22° C | 63% | 1012.7 hPa | 0 mm | - | - | - |
| 1777663053 | 12.22° C | 61% | 1012.7 hPa | 0 mm | - | - | - |
| 1777662734 | 12.78° C | 57% | 1012.6 hPa | 0 mm | - | - | - |
| 1777662413 | 13.33° C | 60% | 1012.8 hPa | 0 mm | - | - | - |
| 1777662093 | 12.78° C | 62% | 1012.6 hPa | 0 mm | - | - | - |
| 1777661661 | 12.78° C | 62% | 1012.6 hPa | 0 mm | - | - | - |
| 1777661341 | 12.78° C | 68% | 1012.5 hPa | 0 mm | - | - | - |
| 1777661014 | 12.22° C | 61% | 1012.6 hPa | 0 mm | - | - | - |
* Rain latest hour (hover to see other rain measurements)
** Current wind speed in m/s (hover to see current wind gust speed)